Temp
5 5 5 4 4 4 4 4 4 4 4 4 5 6 6 6 6 6 6 5 6 5
4 4 4 4 4 4 3 3 3 3 4 4 4 5 5 5 5 5 4 4 4 4
3 3 4 3 3 3 3 2 2 3 3 3 3 4 4 4 3 3 3 2 3 2
1 2 2 2 2 2 2 2 2 2 3 3 2 2 3 3 2 2 1 1 2 1
-0 1 1 1 2 1 1 1 1 2 2 2 2 2 2 2 1 2 0 0 0 0
-2 -1 -1 -0 0 0 0 0 0 1 1 1 1 1 1 2 -1 -1 -2 -2 -2 -2
-3 -3 -2 -2 -1 -1 -1 -1 -1 -0 0 0 0 0 1 0 0 -1 -2 -2 -2 -2
-5 -4 -3 -3 -3 -3 -2 -2 -2 -1 -1 -1 -1 -1 -1 -1 -1 -1 -2 -3 -2 -2
-6 -6 -5 -5 -4 -3 -3 -3 -2 -2 -2 -2 -2 -2 -2 -2 -1 -3 -3 -3 -3 -3
-6 -6 -6 -5 -5 -5 -4 -4 -3 -3 -3 -3 -3 -3 -3 -2 -3 -4 -3 -3 -3 -3
-7 -7 -6 -6 -6 -5 -5 -5 -4 -4 -4 -4 -4 -3 -3 -4 -4 -4 -4 -4 -4 -4
-8 -8 -7 -7 -7 -6 -6 -6 -6 -5 -5 -5 -5 -4 -4 -4 -4 -4 -4 -4 -4 -4
-9 -9 -8 -8 -7 -7 -7 -7 -6 -6 -6 -6 -6 -5 -5 -4 -4 -4 -4 -4 -5 -5
-10 -10 -9 -9 -8 -8 -7 -7 -7 -7 -7 -6 -6 -6 -5 -4 -4 -4 -4 -5 -5 -4
Height
733 737 743 749 755 760 765 770 776 780 787 790 797 798 804 807 812 815 819 823 822 828
734 739 743 748 756 760 765 771 774 779 784 789 794 798 803 806 811 813 818 821 824 827
735 740 745 749 756 760 765 770 774 779 782 785 793 793 804 805 809 813 818 822 824 826
737 744 749 753 758 761 764 769 773 777 781 785 790 792 803 804 808 814 820 822 824 828
747 748 751 754 756 761 765 770 773 776 780 785 790 794 801 805 810 811 819 822 823 827
750 751 752 756 760 763 766 769 773 776 780 784 788 794 799 804 809 814 816 821 824 827
752 754 757 761 764 766 768 771 774 778 781 785 789 793 797 802 807 812 816 821 823 825
759 761 763 765 767 769 771 773 776 780 784 788 792 795 799 803 807 811 814 818 821 825
766 766 768 770 771 772 774 777 779 782 786 791 795 798 801 804 806 809 813 816 820 824
771 770 771 772 774 777 778 782 785 786 789 794 799 801 802 802 805 809 813 816 819 823
775 775 776 777 779 781 784 787 790 790 791 795 800 803 803 804 806 809 812 814 817 821
784 784 783 782 783 785 788 791 790 792 794 797 800 803 804 804 805 808 810 813 816 819
791 789 788 786 786 789 791 793 793 794 796 797 800 802 803 804 805 808 811 814 815 816
794 793 791 791 790 791 792 793 795 796 797 798 800 800 800 803 804 807 810 814 815 815
Wind_Speed
17 19 19 24 25 24 23 22 20 20 18 17 17 17 18 18 17 15 11 10 9 9
15 18 21 18 20 22 21 20 21 22 22 20 18 16 16 18 17 14 12 11 10 9
16 14 14 15 16 17 18 20 21 21 21 20 22 19 20 19 17 14 12 11 11 9
18 16 14 15 13 12 13 16 20 21 22 21 21 22 20 18 17 13 12 11 9 9
18 17 15 13 10 9 10 12 17 19 20 21 22 22 20 17 13 15 16 11 10 11
17 16 15 12 9 8 9 11 14 17 19 20 21 22 19 18 18 13 10 11 11 10
19 16 14 11 9 9 10 11 13 15 17 18 20 20 20 22 19 16 12 13 11 9
19 17 14 13 10 10 11 13 13 15 16 18 19 20 21 19 14 7 7 10 11 9
21 19 17 14 12 12 11 11 14 17 19 19 19 17 15 9 6 9 13 12 11 10
20 20 20 18 16 14 14 13 15 17 17 15 13 10 9 7 9 12 14 14 13 12
21 19 17 15 15 13 12 11 10 10 8 7 8 7 10 10 11 13 14 13 12 12
19 17 16 16 14 11 9 8 7 7 7 7 8 5 4 5 7 12 10 12 13 13
16 15 14 12 11 9 7 7 6 5 5 5 6 5 2 1 5 10 10 9 10 10
16 11 11 9 8 7 5 3 3 2 2 2 3 3 4 5 4 7 10 12 10 11
Wind_Direction
182 171 174 184 182 184 187 189 188 190 196 192 197 187 190 191 198 204 207 210 194 207
156 158 162 164 184 188 189 193 196 200 197 192 187 178 179 179 180 180 180 180 175 175
133 135 145 151 168 178 183 187 182 183 185 187 193 184 190 178 166 160 149 156 157 155
106 125 136 139 147 157 167 181 185 185 183 180 177 169 177 163 160 173 184 168 158 146
101 110 113 113 119 137 158 173 182 180 178 175 176 172 170 158 159 155 146 138 142 141
83 88 92 101 116 135 153 161 170 174 173 169 169 171 176 188 178 179 177 175 191 209
70 75 82 94 113 133 143 152 162 169 169 167 165 167 164 163 164 169 192 220 221 207
71 78 85 93 104 118 134 144 152 158 159 160 160 160 157 156 156 195 201 169 167 188
75 76 77 83 94 108 116 130 144 147 150 151 152 154 158 173 227 204 185 182 185 181
65 69 71 77 85 92 104 119 128 134 141 140 141 154 154 176 163 157 159 164 164 162
53 59 64 73 77 86 97 107 116 120 127 137 139 161 160 155 160 176 191 201 204 198
45 53 61 64 66 72 83 98 103 111 124 139 149 155 178 208 218 195 190 192 197 208
32 41 45 51 60 67 78 83 93 108 121 132 156 167 192 197 171 196 203 206 208 212
22 24 27 43 53 52 61 81 96 118 152 201 228 205 176 213 202 209 216 221 219 214